Flag for U.S.A. Weather past 2 weeks in Winamac, Indiana, U.S.A.

Now
48 °F

Clear.


Feels Like: 45 °F
Forecast: 48 / 78 °F
Wind: 6 mph from Northeast

Location: Porter County Municipal Airport

Current Time: May 23, 2015 at 5:33:31 AM

Latest Report: May 23, 2015 at 4:56 AM


Visibility: 10 mi

Pressure: 30.32 "Hg

Humidity: 66%

Dew point: 37 °F

Location of WinamacLocation

Historic Weather in Winamac — Graph

°F

Winamac temperature yesterday

Maximum temperature yesterday: 70 °F (at 1:56 PM)
Minimum temperature yesterday: 48 °F (at 5:56 AM)
Average temperature yesterday: 59 °F

Past Weeks' High & Low Weather Summary

 TemperatureHumidityPressure
High83 °F (May 18, 2:56 PM)100% (May 9, 9:56 PM)30.50 "Hg (May 9, 9:56 PM)
Low38 °F (May 20, 12:56 AM)23% (May 22, 2:56 PM)29.80 "Hg (May 11, 5:56 PM)
Average58 °F73%30.09 "Hg
* Reported May 8 3:56 AM — May 23 3:56 AM, Winamac, Weather by CustomWeather, © 2015

Note: Actual official high and low records may vary slightly from our data, if they occured in-between our weather recording intervals... More about our weather records

Advertising

Winamac weather history for previous 24 hours

 ConditionsComfort  
Time TempWeatherWind HumidityBarometerVisibility
3:56 AM
Sat, May 23
49 °FClear.5 mph64%30.30 "Hg10 mi
2:56 AM51 °FClear.No wind59%30.30 "Hg10 mi
1:56 AM50 °FClear.7 mph63%30.30 "Hg10 mi
12:56 AM51 °FClear.6 mph63%30.30 "Hg10 mi
11:56 PM
Fri, May 22
51 °FClear.6 mph63%30.30 "Hg10 mi
10:56 PM54 °FClear.5 mph57%30.29 "Hg10 mi
9:56 PM54 °FClear.6 mph55%30.27 "Hg10 mi
8:56 PM58 °FSunny.7 mph41%30.27 "Hg10 mi
7:56 PM62 °FSunny.8 mph35%30.26 "Hg10 mi
6:56 PM65 °FSunny.7 mph28%30.27 "Hg10 mi
5:56 PM67 °FSunny.8 mph29%30.25 "Hg10 mi
4:56 PM69 °FSunny.8 mph27%30.24 "Hg10 mi
3:56 PM70 °FSunny.10 mph26%30.24 "Hg10 mi
2:56 PM70 °FSunny.12 mph23%30.23 "Hg10 mi
1:56 PM70 °FSunny.10 mph29%30.22 "Hg10 mi
12:56 PM69 °FPassing clouds.5 mph39%30.21 "Hg10 mi
11:56 AM68 °FSunny.7 mph44%30.20 "Hg10 mi
10:56 AM65 °FSunny.6 mph51%30.19 "Hg10 mi
9:56 AM61 °FSunny.5 mph60%30.17 "Hg10 mi
8:56 AM58 °FSunny.6 mph65%30.16 "Hg10 mi
7:56 AM52 °FSunny.3 mph77%30.14 "Hg10 mi
6:56 AM49 °FSunny.3 mph77%30.11 "Hg10 mi
5:56 AM48 °FClear.3 mph77%30.09 "Hg10 mi
Weather by CustomWeather, © 2015

See weather overviewHow to use our weather pages